Change the Weather History Date:

Wednesday, April 2, 2014

  Actual Average Record
Temperature  
Mean Temperature 40 °F -  
Max Temperature 51 °F 54 °F 83 °F (1981)
Min Temperature 28 °F 34 °F 17 °F (1993)
Degree Days  
Heating Degree Days 26    
Growing Degree Days 0 (Base 50)    
Moisture  
Dew Point 28 °F    
Average Humidity 63    
Maximum Humidity 86    
Minimum Humidity 41    
Precipitation  
Precipitation 0.00 in - - ()
Sea Level Pressure  
Sea Level Pressure 30.09 in    
Wind  
Wind Speed 10 mph (ENE)    
Max Wind Speed 21 mph    
Max Gust Speed 26 mph    
Visibility 10 miles    
Events      
Averages and records for this station are not official NWS values.
T = Trace of Precipitation, MM = Missing Value Source: NWS Daily Summary

Daily Weather History Graph

Daily Weather History Graph

Search for Another Location

Airport or City:

Trip Planner

Search our weather history database for the weather conditions in past years. The results will help you decide how hot, cold, wet, or windy it might be!

Date:

Astronomy

Apr. 02, 2014 Rise Set
Actual Time 6:42 AM CDT 7:27 PM CDT
Civil Twilight 6:14 AM CDT 7:56 PM CDT
Nautical Twilight 5:40 AM CDT 8:29 PM CDT
Astronomical Twilight 5:06 AM CDT 9:04 PM CDT
Moon 8:24 AM CDT (4/2) 10:54 PM CDT (4/2)
Length of Visible Light 13h 41m
Length of Day
12h 45m
Waxing Crescent, 10% of the Moon is Illuminated
Apr 2
Waxing Crescent
Apr 7
First Quarter
Apr 15
Full
Apr 22
Last Quarter
Apr 29
New

Hourly Weather History & Observations

Time (CDT) Temp. Windchill Dew Point Humidity Pressure Visibility Wind Dir Wind Speed Gust Speed Precip Events Conditions
12:15 AM 37.4 °F 32.1 °F 28.4 °F 70% 30.13 in 10.0 mi WSW 6.9 mph - N/A   Mostly Cloudy
12:35 AM 35.6 °F 30.7 °F 28.4 °F 75% 30.12 in 10.0 mi WNW 5.8 mph - N/A   Partly Cloudy
12:55 AM 35.6 °F 31.7 °F 28.4 °F 75% 30.12 in 10.0 mi WNW 4.6 mph - N/A   Mostly Cloudy
1:15 AM 35.6 °F 32.8 °F 28.4 °F 75% 30.12 in 10.0 mi West 3.5 mph - N/A   Overcast
1:35 AM 35.6 °F 32.8 °F 28.4 °F 75% 30.12 in 10.0 mi West 3.5 mph - N/A   Overcast
1:55 AM 35.6 °F 32.8 °F 28.4 °F 75% 30.12 in 10.0 mi WNW 3.5 mph - N/A   Overcast
2:15 AM 35.6 °F 31.7 °F 28.4 °F 75% 30.11 in 10.0 mi NW 4.6 mph - N/A   Overcast
2:35 AM 35.6 °F 32.8 °F 28.4 °F 75% 30.11 in 10.0 mi North 3.5 mph - N/A   Mostly Cloudy
2:55 AM 33.8 °F 30.8 °F 28.4 °F 81% 30.12 in 10.0 mi North 3.5 mph - N/A   Overcast
3:15 AM 32.0 °F 28.7 °F 26.6 °F 80% 30.11 in 10.0 mi NE 3.5 mph - N/A   Overcast
3:35 AM 30.2 °F 22.6 °F 26.6 °F 86% 30.11 in 10.0 mi NNE 8.1 mph - N/A   Mostly Cloudy
3:55 AM 32.0 °F 26.4 °F 26.6 °F 80% 30.12 in 10.0 mi NNE 5.8 mph - N/A   Partly Cloudy
4:15 AM 30.2 °F 22.6 °F 26.6 °F 86% 30.11 in 10.0 mi NNE 8.1 mph - N/A   Clear
4:35 AM 28.4 °F 19.7 °F 24.8 °F 86% 30.12 in 10.0 mi NNE 9.2 mph - N/A   Clear
4:55 AM 30.2 °F 23.4 °F 24.8 °F 80% 30.12 in 10.0 mi NNE 6.9 mph - N/A   Clear
5:15 AM 28.4 °F 21.2 °F 24.8 °F 86% 30.13 in 10.0 mi NNE 6.9 mph - N/A   Clear
5:35 AM 28.4 °F 19.7 °F 24.8 °F 86% 30.13 in 10.0 mi NNE 9.2 mph - N/A   Clear
5:55 AM 28.4 °F 18.5 °F 24.8 °F 86% 30.13 in 10.0 mi NNE 11.5 mph - N/A   Clear
6:15 AM 28.4 °F 20.4 °F 24.8 °F 86% 30.14 in 10.0 mi NE 8.1 mph - N/A   Clear
7:55 AM 32.0 °F 23.6 °F 26.6 °F 80% 30.17 in 10.0 mi NE 10.4 mph - N/A   Clear
8:15 AM 33.8 °F 24.8 °F 26.6 °F 75% 30.17 in 10.0 mi NE 12.7 mph - N/A   Clear
8:35 AM 33.8 °F 23.9 °F 26.6 °F 75% 30.16 in 10.0 mi NE 15.0 mph - N/A   Clear
8:55 AM 35.6 °F 26.6 °F 28.4 °F 75% 30.16 in 10.0 mi ENE 13.8 mph - N/A   Clear
9:15 AM 35.6 °F 25.9 °F 26.6 °F 70% 30.16 in 10.0 mi ENE 16.1 mph - N/A   Clear
9:35 AM 37.4 °F 27.5 °F 26.6 °F 65% 30.14 in 10.0 mi East 18.4 mph - N/A   Clear
9:55 AM 37.4 °F 27.8 °F 26.6 °F 65% 30.15 in 10.0 mi ENE 17.3 mph - N/A   Clear
10:15 AM 39.2 °F 30.5 °F 26.6 °F 61% 30.15 in 10.0 mi ENE 16.1 mph - N/A   Clear
10:35 AM 41.0 °F 33.9 °F 26.6 °F 57% 30.17 in 10.0 mi East 12.7 mph - N/A   Clear
10:55 AM 41.0 °F 33.1 °F 26.6 °F 57% 30.16 in 10.0 mi East 15.0 mph - N/A   Clear
11:15 AM 42.8 °F 37.0 °F 26.6 °F 53% 30.16 in 10.0 mi East 10.4 mph - N/A   Clear
11:35 AM 42.8 °F 36.6 °F 26.6 °F 53% 30.16 in 10.0 mi East 11.5 mph - N/A   Clear
11:55 AM 44.6 °F 38.8 °F 26.6 °F 49% 30.16 in 10.0 mi East 11.5 mph - N/A   Clear
12:15 PM 46.4 °F 41.9 °F 26.6 °F 46% 30.15 in 10.0 mi East 9.2 mph - N/A   Clear
12:55 PM 46.4 °F 39.2 °F 28.4 °F 50% 30.12 in 10.0 mi East 18.4 mph - N/A   Clear
1:15 PM 48.2 °F - 28.4 °F 46% 30.11 in 10.0 mi East 15.0 mph 20.7 mph N/A   Clear
1:35 PM 48.2 °F - 28.4 °F 46% 30.10 in 10.0 mi ESE 17.3 mph - N/A   Partly Cloudy
1:55 PM 50.0 °F - 28.4 °F 43% 30.10 in 10.0 mi East 15.0 mph - N/A   Mostly Cloudy
2:15 PM 51.8 °F - 28.4 °F 41% 30.09 in 10.0 mi East 15.0 mph 19.6 mph N/A   Overcast
2:35 PM 51.8 °F - 30.2 °F 44% 30.08 in 10.0 mi East 17.3 mph - N/A   Overcast
2:55 PM 51.8 °F - 30.2 °F 44% 30.08 in 10.0 mi East 15.0 mph 21.9 mph N/A   Overcast
3:15 PM 50.0 °F - 30.2 °F 47% 30.06 in 10.0 mi East 15.0 mph - N/A   Overcast
3:35 PM 50.0 °F - 30.2 °F 47% 30.06 in 10.0 mi East 16.1 mph - N/A   Overcast
3:55 PM 50.0 °F - 32.0 °F 50% 30.04 in 10.0 mi East 17.3 mph - N/A   Overcast
4:15 PM 50.0 °F - 32.0 °F 50% 30.05 in 10.0 mi East 13.8 mph - N/A   Overcast
4:35 PM 50.0 °F - 33.8 °F 54% 30.05 in 10.0 mi East 13.8 mph - N/A   Overcast
4:55 PM 50.0 °F - 33.8 °F 54% 30.04 in 10.0 mi East 15.0 mph - N/A   Overcast
5:15 PM 50.0 °F - 33.8 °F 54% 30.03 in 10.0 mi East 16.1 mph 19.6 mph N/A   Overcast
5:35 PM 50.0 °F - 33.8 °F 54% 30.03 in 10.0 mi East 17.3 mph - N/A   Overcast
5:55 PM 48.2 °F - 32.0 °F 54% 30.04 in 10.0 mi East 17.3 mph - N/A   Overcast
6:15 PM 48.2 °F - 33.8 °F 58% 30.04 in 10.0 mi East 15.0 mph - N/A   Overcast
6:35 PM 48.2 °F - 33.8 °F 58% 30.03 in 10.0 mi East 16.1 mph 23.0 mph N/A   Overcast
6:55 PM 46.4 °F 40.1 °F 33.8 °F 62% 30.04 in 10.0 mi East 15.0 mph - N/A   Overcast
7:15 PM 46.4 °F 39.8 °F 33.8 °F 62% 30.04 in 10.0 mi East 16.1 mph - N/A   Overcast
7:35 PM 46.4 °F 39.0 °F 32.0 °F 57% 30.02 in 10.0 mi East 19.6 mph 23.0 mph N/A   Overcast
7:55 PM 46.4 °F 39.2 °F 30.2 °F 53% 30.03 in 10.0 mi East 18.4 mph 25.3 mph N/A   Overcast
8:15 PM 44.6 °F 36.4 °F 30.2 °F 57% 30.02 in 10.0 mi East 20.7 mph 24.2 mph N/A   Overcast
8:35 PM 44.6 °F 36.9 °F 28.4 °F 53% 30.03 in 10.0 mi East 18.4 mph 23.0 mph N/A   Overcast
8:55 PM 44.6 °F 36.9 °F 26.6 °F 49% 30.03 in 10.0 mi East 18.4 mph 21.9 mph N/A   Overcast
9:15 PM 42.8 °F 34.3 °F 26.6 °F 53% 30.03 in 10.0 mi East 19.6 mph - N/A   Overcast
9:35 PM 42.8 °F 35.4 °F 26.6 °F 53% 30.04 in 10.0 mi East 15.0 mph 25.3 mph N/A   Overcast
9:55 PM 42.8 °F 34.8 °F 26.6 °F 53% 30.04 in 10.0 mi East 17.3 mph 26.5 mph N/A   Overcast
10:15 PM 41.0 °F 32.2 °F 24.8 °F 53% 30.03 in 10.0 mi East 18.4 mph 23.0 mph N/A   Overcast
10:35 PM 41.0 °F 33.5 °F 26.6 °F 57% 30.02 in 10.0 mi East 13.8 mph 21.9 mph N/A   Overcast
11:15 PM 39.2 °F 30.5 °F 26.6 °F 61% 30.02 in 10.0 mi East 16.1 mph - N/A   Overcast
11:35 PM 39.2 °F 30.2 °F 26.6 °F 61% 30.01 in 10.0 mi East 17.3 mph - N/A   Overcast
11:55 PM 39.2 °F 30.8 °F 26.6 °F 61% 30.02 in 10.0 mi East 15.0 mph - N/A   Overcast